Location: Caoba
(9.7667°N, 67.4833°W)
Time: 14:09:05
(UTC+00:00)

GOES 2 Rocket - Pass Details

Date: 08 September 2024
Orbit: 569 x 1663 km, 28.4° (Epoch: 11 October)

Event Time Altitude Azimuth Distance (km) Brightness Sun altitude
Rises 23:22:55 0° 300° (WNW) 3,084 8.0 -12.7°
Reaches altitude 10° 23:25:04 10° 301° (WNW) 2,277 7.1 -13.3°
Maximum altitude 23:30:28 82° 29° (NNE) 920 3.8 -14.6°
Enters shadow 23:35:25 21° 115° (ESE) 2,201 5.3 -15.8°
